This demonstration page uses our WeatherBlox Daily Observations layout. Learn more.

40.92945, -100.16068

Hourly Observations for January 16, 2018

Temp ( °F °C ) Dew Point ( °F °C ) Humidity (%) Winds ( mph kmh ) Pressure ( in mb ) Visibility ( mi km ) Precip ( " mm )
12:15 am 00:15 Clear 1 -17.1 -8 -22.3 64 64 NNW 16 26 31.01 1050 10 16.0934 0 0
12:35 am 00:35 Clear 1 -17.3 -9 -22.5 64 64 NNW 17 28 31.01 1050 10 16.0934 0 0
12:55 am 00:55 Clear 1 -17.5 -9 -22.5 65 65 NNW 15 24 31.01 1050 10 16.0934 0 0
1:15 am 01:15 Clear 0 -17.7 -9 -22.6 66 66 NNW 15 24 31.01 1050 10 16.0934 0 0
1:35 am 01:35 Clear 0 -17.8 -9 -22.8 65 65 NNW 14 22 31.01 1050 10 16.0934 0 0
1:55 am 01:55 Clear 0 -18 -9 -23 65 65 NNW 14 22 31.01 1050 10 16.0934 0 0
2:15 am 02:15 Clear -1 -18.1 -9 -23 66 66 NNW 15 24 31.04 1051 10 16.0934 0 0
2:35 am 02:35 Clear -1 -18.2 -10 -23.1 66 66 NW 15 24 31.04 1051 10 16.0934 0 0
2:55 am 02:55 Clear -1 -18.4 -10 -23.2 66 66 NNW 12 19 31.04 1051 10 16.0934 0 0
3:15 am 03:15 Clear -1 -18.5 -10 -23.2 67 67 NW 12 19 31.04 1051 10 16.0934 0 0
3:35 am 03:35 Clear -1 -18.6 -10 -23.2 67 67 NW 15 24 31.04 1051 10 16.0934 0 0
3:55 am 03:55 Clear -1 -18.6 -10 -23.2 67 67 NW 15 24 31.01 1050 10 16.0934 0 0
4:15 am 04:15 Clear -2 -18.7 -10 -23.4 67 67 NW 15 24 31.01 1050 10 16.0934 0 0
4:35 am 04:35 Clear -2 -18.7 -10 -23.5 66 66 NNW 16 26 31.04 1051 10 16.0934 0 0
4:55 am 04:55 Clear -2 -19 -10 -23.5 68 68 NNW 16 26 31.04 1051 10 16.0934 0 0
5:15 am 05:15 Clear -2 -19 -10 -23.6 67 67 NW 13 20 31.04 1051 10 16.0934 0 0
5:35 am 05:35 Clear -2 -19 -10 -23.6 67 67 NNW 12 19 31.04 1051 10 16.0934 0 0
5:55 am 05:55 Clear -2 -19.1 -10 -23.6 68 68 NW 12 19 31.04 1051 10 16.0934 0 0
6:15 am 06:15 Clear -2 -19 -10 -23.5 68 68 NNW 12 19 31.04 1051 10 16.0934 0 0
6:35 am 06:35 Clear -2 -19 -10 -23.5 68 68 NW 8 13 31.04 1051 10 16.0934 0 0
6:55 am 06:55 Clear -2 -19 -10 -23.4 68 68 NW 9 15 31.04 1051 10 16.0934 0 0
7:15 am 07:15 Clear -2 -19.1 -10 -23.5 68 68 NW 9 15 31.04 1051 10 16.0934 0 0
7:35 am 07:35 Clear -3 -19.4 -10 -23.5 70 70 NW 9 15 31.04 1051 10 16.0934 0 0
7:55 am 07:55 Clear -3 -19.6 -10 -23.6 71 71 NW 7 11 31.04 1051 10 16.0934 0 0
8:15 am 08:15 Sunny -3 -19.6 -10 -23.6 71 71 NW 8 13 31.04 1051 10 16.0934 0 0
8:35 am 08:35 Sunny -3 -19.4 -10 -23.6 70 70 NW 9 15 31.04 1051 10 16.0934 0 0
8:55 am 08:55 Sunny -2 -19 -10 -23.5 68 68 WNW 8 13 31.04 1051 10 16.0934 0 0
9:15 am 09:15 Sunny -1 -18.6 -10 -23.5 66 66 NW 10 17 31.04 1051 10 16.0934 0 0
9:35 am 09:35 Sunny -1 -18.1 -10 -23.3 64 64 NW 9 15 31.04 1051 10 16.0934 0 0
9:55 am 09:55 Sunny 1 -17.5 -9 -22.6 65 65 NW 10 17 31.01 1050 10 16.0934 0 0
10:15 am 10:15 Sunny 2 -16.8 -8 -22.2 63 63 NW 10 17 31.01 1050 10 16.0934 0 0
10:35 am 10:35 Sunny 3 -16.1 -7 -21.9 61 61 NW 9 15 31.01 1050 10 16.0934 0 0
10:55 am 10:55 Sunny 5 -15.2 -6 -21.1 61 61 NW 7 11 30.98 1049 10 16.0934 0 0
11:15 am 11:15 Sunny 6 -14.5 -5 -20.6 60 60 WNW 7 11 30.98 1049 10 16.0934 0 0
11:35 am 11:35 Sunny 7 -14 -4 -20.2 60 60 NW 6 9 30.98 1049 10 16.0934 0 0
11:55 am 11:55 Sunny 8 -13.6 -4 -19.9 59 59 WNW 6 9 30.98 1049 10 16.0934 0 0
12:15 pm 12:15 Sunny 8 -13.2 -3 -19.4 60 60 WNW 5 7 30.95 1048 10 16.0934 0 0
12:35 pm 12:35 Sunny 9 -13 -3 -19.3 60 60 W 5 7 30.92 1047 10 16.0934 0 0
12:55 pm 12:55 Sunny 10 -12.5 -2 -18.9 59 59 NW 6 9 30.89 1046 10 16.0934 0 0
1:15 pm 13:15 Sunny 10 -12.1 -1 -18.5 59 59 NW 3 6 30.89 1046 10 16.0934 0 0
1:35 pm 13:35 Sunny 11 -11.9 -1 -18.1 60 60 NW 5 7 30.86 1045 10 16.0934 0 0
1:55 pm 13:55 Sunny 11 -11.4 0 -17.7 60 60 Calm 30.86 1045 10 16.0934 0 0
2:15 pm 14:15 Sunny 13 -10.4 0 -17.6 56 56 Calm 30.83 1044 10 16.0934 0 0
2:35 pm 14:35 Sunny 13 -10.3 0 -17.8 55 55 W 5 7 30.83 1044 10 16.0934 0 0
2:55 pm 14:55 Sunny 14 -9.9 1 -17.5 54 54 WNW 3 6 30.83 1044 10 16.0934 0 0
3:15 pm 15:15 Sunny 15 -9.4 1 -17.3 53 53 Calm 30.8 1043 10 16.0934 0 0
3:35 pm 15:35 Sunny 15 -9.3 1 -17.1 53 53 Calm 30.8 1043 10 16.0934 0 0
3:55 pm 15:55 Sunny 17 -8.5 2 -16.7 52 52 SW 3 6 30.77 1042 10 16.0934 0 0
4:15 pm 16:15 Sunny 17 -8.5 2 -16.8 52 52 SW 5 7 30.77 1042 10 16.0934 0 0
4:35 pm 16:35 Sunny 17 -8.3 2 -16.8 51 51 SW 3 6 30.77 1042 10 16.0934 0 0
4:55 pm 16:55 Sunny 17 -8.3 2 -16.6 52 52 SSW 7 11 30.74 1041 10 16.0934 0 0
5:15 pm 17:15 Sunny 17 -8.5 2 -16.7 52 52 SW 7 11 30.74 1041 10 16.0934 0 0
5:35 pm 17:35 Sunny 15 -9.2 2 -16.7 55 55 SW 7 11 30.77 1042 10 16.0934 0 0
5:55 pm 17:55 Clear 14 -10.1 2 -16.8 58 58 S 6 9 30.77 1042 10 16.0934 0 0
6:15 pm 18:15 Clear 12 -11.3 2 -16.6 65 65 S 6 9 30.77 1042 10 16.0934 0 0
6:35 pm 18:35 Clear 11 -11.8 2 -16.9 66 66 S 7 11 30.74 1041 10 16.0934 0 0
6:55 pm 18:55 Clear 10 -12.3 1 -17 68 68 S 7 11 30.77 1042 10 16.0934 0 0
7:15 pm 19:15 Clear 9 -13 1 -17.2 71 71 S 7 11 30.77 1042 10 16.0934 0 0
7:35 pm 19:35 Clear 10 -12.4 2 -16.7 71 71 SSW 8 13 30.77 1042 10 16.0934 0 0
7:55 pm 19:55 Clear 9 -12.6 1 -17 70 70 SSW 6 9 30.77 1042 10 16.0934 0 0
8:15 pm 20:15 Clear 9 -12.7 1 -17.2 69 69 S 6 9 30.77 1042 10 16.0934 0 0
8:35 pm 20:35 Clear 9 -12.7 1 -17.3 69 69 S 6 9 30.74 1041 10 16.0934 0 0
8:55 pm 20:55 Clear 9 -13 1 -17.2 71 71 S 7 11 30.74 1041 10 16.0934 0 0
9:15 pm 21:15 Clear 9 -13 2 -16.9 73 73 S 7 11 30.74 1041 10 16.0934 0 0
9:35 pm 21:35 Clear 9 -13 1 -17 72 72 S 6 9 30.74 1041 10 16.0934 0 0
9:55 pm 21:55 Clear 8 -13.1 2 -16.9 73 73 SSE 7 11 30.74 1041 10 16.0934 0 0
10:15 pm 22:15 Clear 8 -13.1 2 -16.8 74 74 S 8 13 30.74 1041 10 16.0934 0 0
10:35 pm 22:35 Clear 10 -12.5 2 -16.7 71 71 S 10 17 30.71 1040 10 16.0934 0 0
10:55 pm 22:55 Clear 9 -12.8 1 -17 71 71 S 9 15 30.71 1040 10 16.0934 0 0
11:15 pm 23:15 Clear 10 -12.4 2 -16.6 71 71 S 9 15 30.71 1040 10 16.0934 0 0
11:35 pm 23:35 Clear 10 -12.2 2 -16.7 69 69 S 9 15 30.68 1039 10 16.0934 0 0
11:55 pm 23:55 Clear 10 -12 2 -16.6 69 69 SSW 8 13 30.68 1039 10 16.0934 0 0

Powered by AerisWeather